Wind_Speed
22 24 24 25 26 27 28 30 33 33 33 31 30 28 28 28 27 26 25 24 23 23 22 20 18 17 15 14 12 12 11 11 11 10 10 10 9 8 8 9 10 12 14
23 25 26 26 28 29 30 31 36 38 37 37 35 32 31 32 32 31 30 28 27 26 26 25 23 21 19 17 16 14 13 13 13 12 13 11 10 10 10 12 14 16 17
20 22 25 27 29 30 32 32 35 38 40 40 38 39 37 36 36 36 35 33 31 31 30 29 27 26 23 22 20 19 17 16 15 16 14 14 12 13 13 15 17 18 18
19 20 21 23 25 27 31 33 35 37 38 41 39 41 43 42 42 40 39 39 36 34 34 33 31 30 28 26 24 23 21 20 18 18 18 16 17 15 16 17 18 18 18
19 23 24 25 28 29 32 33 34 35 39 41 40 43 42 43 46 46 46 43 41 39 37 37 36 35 33 30 29 27 27 25 22 21 20 20 19 17 18 18 18 17 18
24 27 29 29 31 34 36 38 41 42 41 40 40 49 45 47 47 46 50 50 48 44 42 41 40 38 37 35 33 31 30 28 27 24 23 23 21 20 18 18 18 18 18
28 29 32 33 35 38 41 43 44 47 49 45 45 52 53 57 53 54 52 52 51 53 47 45 45 42 40 40 38 35 32 31 30 28 26 24 24 22 19 19 19 19 19
32 33 37 41 45 50 52 51 50 50 54 48 46 52 61 61 59 62 59 56 58 55 54 50 50 46 43 43 42 40 35 32 33 32 29 26 25 25 21 20 20 19 19
38 42 46 51 53 53 52 50 54 57 53 56 44 55 54 61 67 60 65 60 61 62 54 54 56 51 47 45 45 44 40 37 36 32 31 28 27 27 24 22 20 20 19
51 53 55 55 53 49 49 49 51 55 58 59 61 49 54 64 60 69 57 64 70 62 61 58 55 52 53 51 46 44 43 41 41 34 38 33 31 31 24 22 22 20 21
56 60 61 59 55 52 51 51 52 55 59 63 62 63 70 69 61 61 64 55 63 63 66 63 63 55 57 55 50 47 46 45 46 41 41 39 32 30 27 25 27 20 23
61 61 59 57 54 52 50 50 51 54 59 63 66 67 67 67 72 77 66 62 52 60 59 66 62 63 61 56 51 51 45 48 46 40 45 42 36 34 31 31 27 21 23
64 61 59 57 54 53 51 50 51 51 55 60 63 67 68 63 64 65 68 66 70 66 59 59 60 57 65 59 54 53 54 49 48 39 46 44 42 38 37 31 27 22 23
65 64 63 60 58 57 57 55 56 56 57 59 61 63 65 70 64 59 60 62 62 61 60 65 53 52 57 53 57 52 52 50 47 45 44 45 40 37 36 30 30 25 24
64 64 65 65 61 57 54 53 54 57 59 61 61 62 65 66 68 65 59 60 67 62 62 58 48 49 46 50 59 59 55 56 49 44 49 44 39 39 41 36 40 35 28
62 61 59 57 55 55 56 57 58 57 55 53 53 53 57 62 61 63 59 60 70 61 63 60 54 43 43 44 55 57 58 53 48 47 46 46 46 42 43 37 38 29 28
59 58 56 56 56 57 56 57 55 53 54 56 54 53 53 54 55 56 56 57 55 53 59 62 50 52 41 41 45 52 59 57 53 51 44 44 45 42 38 37 34 30 31
56 56 57 59 59 58 55 52 52 55 57 59 57 54 51 50 53 50 50 50 65 52 57 57 50 48 45 34 37 48 57 55 55 50 47 45 44 41 41 36 34 28 25
57 58 59 58 57 56 51 51 54 56 56 55 56 58 56 54 53 52 56 53 62 53 49 55 43 50 44 47 32 45 59 58 50 48 50 50 40 43 41 34 30 26 28
56 57 57 60 56 49 49 50 51 52 50 49 44 45 44 48 55 52 49 50 53 56 48 51 51 46 39 43 49 45 56 54 47 45 49 41 47 39 34 31 30 26 27
56 58 61 54 47 46 45 48 48 44 40 40 40 39 36 34 36 48 51 53 53 56 55 45 51 50 48 49 47 50 54 50 48 45 42 47 46 43 33 32 27 25 24
57 59 53 45 42 42 45 41 39 38 36 37 40 37 35 35 31 36 45 54 61 62 56 55 55 44 49 46 54 50 49 54 51 44 43 45 50 39 33 29 25 25 25
59 53 44 41 43 43 38 37 35 32 33 32 33 29 30 20 20 24 42 48 57 58 52 47 49 49 49 38 50 49 45 44 46 43 43 46 38 36 31 30 28 25 25
53 41 38 40 41 38 37 35 30 29 27 26 19 17 15 10 12 9 19 44 50 47 52 55 52 29 26 42 37 38 41 46 45 44 45 40 40 33 33 28 26 26 26
38 35 36 38 36 36 34 31 25 23 20 17 11 7 8 9 8 8 8 28 44 49 59 44 35 30 27 31 35 40 46 44 44 40 37 43 37 34 31 28 27 27 25
33 31 33 31 32 30 29 25 19 15 9 4 2 13 17 13 9 8 3 13 21 35 38 34 26 25 25 29 29 29 30 34 35 39 41 38 36 34 31 29 28 25 23
Wind_Direction
251 254 257 259 261 262 262 263 264 263 264 265 265 264 266 265 263 262 264 265 266 270 273 274 274 273 273 270 269 269 269 272 268 266 263 265 266 268 278 286 290 292 292
261 264 265 266 266 265 264 263 267 269 270 268 262 262 261 263 263 260 257 258 261 263 265 267 268 269 269 266 259 253 257 263 268 263 262 256 259 274 283 294 296 294 292
266 269 270 271 269 267 267 265 264 268 269 271 267 262 258 258 258 260 259 256 253 256 259 261 262 263 263 261 258 253 247 249 255 260 257 257 258 262 275 288 293 293 290
263 271 273 275 275 275 274 271 268 265 268 270 270 268 264 260 258 255 255 256 254 253 256 257 258 260 261 262 261 257 251 246 245 248 253 251 262 265 279 286 288 290 288
289 289 286 286 286 284 283 280 277 276 273 276 266 268 267 267 265 263 260 254 252 251 251 254 255 257 257 256 258 257 255 249 244 243 245 251 254 260 274 284 286 287 288
299 292 288 285 281 280 280 280 280 276 275 274 273 276 262 263 260 260 262 260 255 248 248 248 250 253 255 256 253 254 255 254 252 248 245 249 249 254 263 276 283 283 282
298 295 288 287 287 286 284 283 279 275 273 269 267 267 267 269 265 259 257 258 258 256 250 245 248 247 250 254 256 252 252 254 254 252 247 250 253 254 261 269 275 278 280
291 286 283 284 286 286 286 283 276 270 267 266 267 267 265 269 258 260 255 255 255 258 253 249 249 246 246 249 251 252 249 253 254 252 250 247 252 256 258 268 272 272 272
291 291 293 294 293 293 292 284 276 273 270 264 266 259 270 274 267 266 262 256 256 255 256 257 254 250 246 246 248 250 250 244 249 247 249 248 249 252 256 262 268 272 269
292 295 298 299 297 293 287 281 274 272 271 263 259 260 263 264 276 275 270 262 257 254 254 250 252 251 250 246 245 247 247 249 248 245 251 245 249 248 254 264 269 273 273
300 299 297 295 294 292 289 286 280 275 271 272 270 266 262 263 272 270 267 272 265 260 260 254 245 249 250 245 243 243 242 246 247 251 247 251 243 248 254 263 265 270 272
296 298 301 301 299 296 291 285 280 277 273 270 268 270 269 267 264 267 271 274 278 258 271 257 253 261 247 243 241 239 236 241 243 238 244 248 242 254 253 256 255 264 269
303 305 305 303 300 297 292 286 281 276 269 267 267 265 265 263 260 260 264 266 259 265 263 251 258 260 252 249 238 236 239 238 241 239 248 249 245 247 252 245 250 262 264
308 307 305 303 299 295 290 285 279 275 275 274 270 269 267 265 262 262 259 269 261 252 259 262 259 256 257 247 238 233 241 235 235 245 240 246 244 240 251 237 240 266 265
307 307 307 305 301 299 297 292 287 287 284 279 275 268 264 263 261 258 261 257 256 259 253 255 261 257 257 257 244 235 229 229 233 233 249 237 235 245 241 240 246 255 259
309 307 305 304 303 302 299 295 292 292 287 283 279 273 268 267 262 261 255 255 256 259 259 249 255 259 262 259 246 245 239 228 229 238 234 232 240 243 239 241 251 244 249
310 309 308 305 303 302 297 294 292 290 287 286 281 275 270 266 263 257 255 252 255 251 252 267 251 250 260 249 260 251 239 233 227 226 226 230 238 232 232 240 237 241 249
310 309 307 306 304 302 299 294 291 289 286 284 279 274 270 264 261 253 250 252 256 251 247 246 251 250 252 253 270 252 248 236 226 224 223 233 230 228 232 237 238 245 243
312 312 310 307 302 301 297 293 293 290 287 285 279 272 266 261 258 253 246 241 245 251 249 249 245 256 253 256 256 255 241 235 228 229 228 235 218 226 233 227 235 234 247
312 312 310 309 303 302 299 299 298 295 292 290 286 280 274 263 253 250 242 238 243 243 242 245 250 244 248 261 249 248 233 226 227 227 227 218 220 219 215 225 227 236 241
311 312 312 309 304 304 307 305 302 300 301 300 297 290 280 268 254 242 235 227 229 235 240 240 243 240 245 247 246 234 228 230 223 227 225 216 218 229 213 218 224 232 240
311 315 316 310 309 313 314 311 308 307 306 302 293 291 276 268 260 247 233 224 229 229 237 230 235 245 246 252 240 226 219 218 219 215 222 222 224 208 207 215 223 234 239
319 318 314 317 320 319 321 319 313 309 300 288 279 282 274 253 257 254 220 217 222 231 237 240 244 251 245 252 239 232 221 221 222 225 220 221 205 199 204 213 224 230 234
321 319 322 323 322 326 327 321 315 307 292 278 264 270 250 219 236 240 212 203 218 228 236 240 252 256 263 247 246 235 217 217 217 216 221 213 193 195 208 212 224 233 236
323 322 324 324 326 330 331 324 314 300 292 284 295 292 273 189 139 126 204 202 211 227 233 239 247 265 248 230 216 213 212 213 211 214 213 201 192 200 209 218 226 229 232
321 323 324 326 333 335 335 329 313 303 300 290 82 77 68 87 108 67 283 256 226 220 225 230 218 224 215 207 207 202 210 217 222 212 196 186 191 207 214 218 224 228 234
Height
3149 3150 3150 3151 3152 3152 3152 3150 3147 3146 3147 3149 3150 3152 3153 3152 3151 3152 3153 3152 3152 3152 3152 3153 3152 3152 3152 3152 3152 3152 3153 3154 3153 3153 3153 3154 3155 3154 3155 3155 3154 3154 3154
3145 3146 3146 3147 3146 3146 3146 3146 3144 3142 3142 3142 3143 3144 3145 3145 3145 3145 3145 3146 3146 3146 3146 3147 3148 3148 3148 3148 3147 3146 3147 3149 3150 3149 3150 3150 3150 3151 3151 3151 3151 3150 3150
3139 3139 3140 3140 3140 3140 3140 3139 3137 3137 3136 3136 3137 3137 3135 3135 3135 3135 3136 3137 3138 3138 3140 3140 3141 3141 3142 3143 3143 3142 3142 3143 3144 3146 3145 3146 3146 3147 3147 3147 3147 3146 3145
3133 3133 3134 3134 3134 3133 3133 3133 3131 3129 3129 3129 3128 3129 3128 3127 3126 3125 3125 3126 3128 3131 3133 3133 3134 3135 3136 3137 3138 3138 3138 3138 3138 3140 3141 3141 3143 3143 3143 3143 3142 3142 3141
3128 3128 3128 3128 3128 3127 3126 3125 3124 3122 3120 3119 3119 3119 3119 3119 3121 3122 3121 3119 3117 3119 3122 3125 3127 3127 3129 3130 3131 3133 3133 3133 3133 3133 3135 3136 3136 3137 3139 3138 3137 3136 3136
3123 3122 3121 3121 3120 3119 3118 3117 3116 3114 3112 3110 3108 3106 3106 3108 3108 3108 3110 3112 3111 3107 3110 3114 3117 3119 3121 3123 3124 3126 3127 3128 3128 3128 3129 3131 3131 3131 3131 3132 3132 3132 3131
3117 3116 3115 3114 3112 3111 3110 3108 3106 3104 3102 3102 3099 3095 3095 3092 3094 3094 3096 3099 3099 3101 3098 3101 3106 3108 3111 3115 3118 3118 3120 3121 3122 3122 3122 3124 3126 3126 3126 3127 3126 3127 3127
3109 3109 3107 3106 3103 3098 3096 3094 3092 3090 3087 3088 3088 3083 3079 3079 3076 3079 3083 3084 3086 3090 3090 3088 3094 3097 3100 3103 3107 3111 3113 3113 3115 3116 3116 3117 3119 3121 3121 3121 3121 3121 3121
3100 3099 3096 3093 3090 3086 3082 3079 3077 3075 3073 3071 3072 3072 3066 3062 3066 3064 3068 3069 3072 3074 3079 3078 3083 3086 3090 3092 3095 3100 3105 3105 3107 3110 3109 3110 3111 3113 3115 3115 3115 3116 3116
3089 3086 3082 3078 3072 3070 3066 3064 3062 3059 3056 3056 3054 3054 3054 3052 3050 3048 3051 3053 3056 3058 3062 3064 3067 3071 3079 3081 3084 3088 3095 3098 3099 3102 3106 3103 3104 3107 3107 3108 3110 3110 3111
3077 3074 3070 3066 3062 3057 3053 3050 3047 3045 3042 3039 3038 3038 3039 3037 3036 3036 3037 3040 3042 3045 3049 3049 3049 3056 3062 3069 3073 3075 3084 3087 3089 3093 3096 3096 3097 3099 3101 3102 3105 3104 3106
3064 3060 3054 3049 3045 3042 3038 3035 3032 3029 3026 3024 3023 3022 3022 3022 3023 3024 3023 3027 3029 3030 3030 3032 3033 3039 3040 3051 3060 3064 3069 3074 3079 3081 3087 3089 3090 3093 3094 3096 3098 3097 3099
3047 3042 3037 3032 3029 3025 3022 3019 3014 3012 3009 3005 3004 3003 3003 3002 3002 3003 3005 3006 3010 3013 3015 3018 3023 3026 3032 3034 3040 3051 3054 3063 3068 3072 3078 3080 3081 3085 3087 3088 3091 3091 3093
3028 3024 3020 3017 3013 3009 3003 2999 2995 2991 2989 2987 2985 2985 2984 2984 2986 2988 2989 2990 2993 2992 2996 3004 3009 3013 3020 3021 3028 3036 3042 3051 3057 3061 3065 3073 3075 3077 3081 3081 3082 3085 3087
3017 3010 3003 2997 2992 2988 2984 2980 2976 2974 2971 2968 2966 2965 2964 2965 2967 2970 2973 2977 2982 2974 2977 2984 2993 3002 3007 3007 3012 3020 3028 3038 3045 3049 3054 3063 3066 3069 3071 3072 3075 3078 3081
3003 2996 2989 2982 2976 2971 2965 2961 2957 2955 2950 2947 2945 2944 2945 2945 2950 2953 2956 2959 2965 2969 2969 2971 2983 2991 2994 2997 3004 3009 3009 3024 3033 3038 3041 3053 3055 3060 3063 3065 3068 3070 3073
2988 2981 2974 2967 2961 2955 2950 2945 2941 2937 2933 2930 2929 2927 2926 2928 2930 2934 2938 2942 2948 2954 2959 2960 2966 2977 2982 2986 2994 2997 3001 3009 3017 3023 3032 3041 3044 3051 3055 3057 3060 3062 3066
2974 2967 2960 2953 2946 2940 2934 2929 2924 2921 2916 2912 2909 2907 2907 2910 2911 2916 2921 2923 2928 2940 2949 2949 2955 2963 2972 2976 2982 2986 2989 2997 3007 3013 3023 3030 3035 3042 3044 3049 3053 3055 3059
2962 2954 2945 2938 2931 2926 2920 2914 2908 2903 2897 2892 2889 2886 2885 2888 2890 2896 2903 2909 2916 2923 2933 2939 2945 2952 2960 2963 2971 2976 2981 2989 2997 3003 3014 3019 3027 3031 3035 3043 3046 3048 3052
2950 2943 2934 2925 2917 2910 2904 2898 2891 2884 2878 2873 2868 2865 2863 2864 2869 2877 2885 2892 2902 2911 2917 2925 2933 2940 2949 2953 2960 2966 2972 2980 2985 2994 3001 3009 3016 3022 3028 3034 3039 3043 3045
2939 2930 2921 2911 2903 2897 2891 2883 2875 2868 2862 2857 2853 2850 2848 2849 2851 2858 2868 2879 2887 2895 2901 2911 2921 2928 2934 2939 2947 2954 2964 2971 2976 2985 2993 3000 3007 3015 3021 3028 3033 3037 3039
2930 2919 2908 2901 2893 2886 2878 2871 2862 2856 2851 2847 2843 2840 2838 2839 2839 2842 2849 2862 2873 2880 2886 2897 2907 2916 2924 2929 2935 2943 2951 2961 2967 2974 2983 2992 2999 3006 3015 3022 3026 3031 3034
2918 2908 2899 2889 2883 2875 2868 2861 2854 2849 2845 2841 2837 2834 2831 2830 2829 2827 2831 2846 2860 2869 2879 2888 2898 2903 2910 2915 2926 2935 2945 2954 2960 2968 2976 2984 2992 3000 3008 3015 3021 3024 3027
2906 2897 2890 2883 2875 2868 2861 2855 2848 2844 2841 2836 2832 2828 2825 2824 2823 2825 2827 2838 2852 2865 2872 2883 2890 2897 2902 2912 2924 2934 2941 2946 2956 2964 2971 2976 2984 2993 3003 3010 3014 3018 3021
2898 2891 2884 2879 2871 2863 2857 2851 2845 2842 2838 2834 2830 2825 2823 2821 2822 2825 2831 2838 2849 2858 2866 2877 2886 2894 2900 2911 2919 2925 2932 2943 2951 2959 2966 2974 2979 2990 2998 3003 3009 3012 3015
2894 2890 2883 2877 2868 2862 2856 2850 2845 2841 2837 2834 2831 2826 2824 2823 2825 2827 2833 2841 2848 2857 2868 2878 2886 2891 2900 2909 2916 2926 2934 2941 2947 2952 2960 2968 2975 2986 2990 2998 3004 3007 3010